Showing default

PREFIRE-2, 59881

Orbit data source: Space-Track

PREFIRE-2, 59881 is a payload satellite owned by JPL (US) in SSO that was launched on Sat, 25 May 2024 UTC via an ELECTRON launch vehicle from the Rocket Lab Launch Complex (RLLC). Payload-class satellites include a variety of spacecraft equipped with specific instruments for various scientific and technological missions. These include communications satellites like Starlink; space stations such as the ISS; scientific satellites like the Hubble; Earth observation satellites from companies like Planet Labs, Umbra, and HawkEye 360; GPS; miniature CubeSats for education and research; and military/defense satellites.

Loading next visibility...
Identifier
59881, 2024-099A
Orbit
SSO
Country
Flag of USUS
Related business
Manufacturer
JPL
Mission
Operational Civil Earth Obs Sci
Bus & Motor
CUBESAT 6U, Unknown motor
Mass
~10 kg wet, ~10 kg dry
Launch date (UTC)
2024-05-25 (2 years ago)
Launch vehicle
ELECTRON
Launch site
Rocket Lab Launch Complex (RLLC)
Object type
Payload
Rocket body
Debris
Shape & HBR
Box + 1 Sail, 6.3 m
Radar Cross Section
0.080 m², Medium (>0.1 m² and < 1m²)

Expand to show TLE details & history
Last TLE update: 16 hours ago

TLE from 16 hours ago
0 PREFIRE-2
1 59881U 24099A   25347.84897463  .00005092  00000-0  24350-3 0  9998
2 59881  97.4268 202.0450 0013628 128.6943 231.5513 15.19361885 85971
Epoch: 2025-12-13T20:22Z
TLE epoch observation values (Epoch: 2025-12-13T20:22:31.408Z)
Latitude
0.00002°
Longitude
173.64378°
Altitude
516.701 km
Speed
7.602 km/s
True Right ascension
13h 28m 10s
True Declination
0° 00' 00"
Sunlit
Object was in daylight at epoch
Visualization orbit readout
Latitude
Unknown
Longitude
Unknown
Altitude
Unknown
Speed
Unknown
Apparent Right ascension
Unknown
Apparent Declination
Unknown
Sunlit
N/A
Visualization observer readout
Local Sidereal Time
10:38:23
Azimuth
Unknown
Elevation
Unknown
Doppler factor
Unknown
Orbital elements
Apogee altitude
514.115 km
Perigee altitude
495.356 km
Semi-major axis
6,882.873 km
Eccentricity
0.00136
Inclination
97.4268°
RAAN
202.045°
Arg. of periapsis
128.6943°
True anomaly
231.42913°
Mean anomaly
231.5513°
Eccentric anomaly
231.4902°
Mean motion
3.80092 °/min
Orbital period
94.71 mins
BSTAR
0.0002435
Loading maneuver chart data...
Computing Atmospheric mass density...
Loading historical data...
Loading historical data...
Loading historical data...
Loading historical data...
Loading historical data...
Loading historical data...
Loading historical data...
Other satellites on launch #99 in the year 2024 (2024-05-25 UTC)

Documentation

Showing up to 5 results
|